Home   Weather   Santa Rosa   Past weeks
Flag for Argentina

Past Weather in Santa Rosa, La Pampa, Argentina — Yesterday and Last 2 Weeks

Now
46 °F

Overcast.


Feels Like: 41 °F
Forecast: 56 / 38 °F
Wind: 8 mph from Northwest

Location: Santa Rosa Aerodrome

Current Time: Jun 26, 2019 at 7:11:00 am

Latest Report: Jun 26, 2019 at 5:00 am


Visibility: 19 mi

Pressure: 29.85 "Hg

Humidity: 34%

Dew Point: 19 °F

Location of Santa RosaLocation

Past Weather in Santa Rosa — Graph

°F

Santa Rosa Temperature Yesterday

Maximum temperature yesterday: 55 °F (at 4:00 pm)
Minimum temperature yesterday: 35 °F (at 9:00 am)
Average temperature yesterday: 45 °F

High & Low Weather Summary for the Past Weeks

 TemperatureHumidityPressure
High67 °F (Jun 22, 4:00 pm)100% (Jun 12, 12:00 am)30.39 "Hg (Jun 12, 12:00 am)
Low34 °F (Jun 11, 9:00 am)27% (Jun 25, 5:00 pm)29.62 "Hg (Jun 24, 6:00 pm)
Average48 °F81%30.02 "Hg
* Reported Jun 11 5:00 am — Jun 26 5:00 am, Santa Rosa. Weather by CustomWeather, © 2019

Note: Actual official high and low records may vary slightly from our data, if they occured in-between our weather recording intervals... More about our weather records

Advertising

Santa Rosa Weather History for the Previous 24 Hours

Scroll right to see more
 ConditionsComfort  
Time TempWeatherWind HumidityBarometerVisibility
5:00 am
Wed, Jun 26
46 °FOvercast.8 mph34%29.85 "Hg19 mi
4:00 am43 °FOvercast.7 mph49%29.88 "Hg19 mi
3:00 am41 °FOvercast.6 mph53%29.90 "Hg19 mi
2:00 am37 °FPassing clouds.3 mph67%29.93 "Hg19 mi
1:00 am38 °FPassing clouds.5 mph61%29.95 "Hg19 mi
12:00 am38 °FPassing clouds.5 mph60%29.96 "Hg19 mi
11:00 pm
Tue, Jun 25
40 °FPassing clouds.6 mph62%29.97 "Hg19 mi
10:00 pm40 °FClear.5 mph59%29.97 "Hg19 mi
9:00 pm42 °FClear.3 mph61%29.99 "Hg19 mi
8:00 pm44 °FClear.3 mph58%29.98 "Hg19 mi
7:00 pm49 °FClear.3 mph47%29.97 "Hg19 mi
6:00 pm53 °FPassing clouds.8 mph35%29.95 "Hg19 mi
5:00 pm55 °FPassing clouds.15 mph27%29.94 "Hg19 mi
4:00 pm55 °FPassing clouds.16 mph28%29.94 "Hg19 mi
3:00 pm55 °FPassing clouds.18 mph29%29.95 "Hg19 mi
2:00 pm54 °FPassing clouds.17 mph30%29.96 "Hg19 mi
1:00 pm53 °FSunny.20 mph30%29.98 "Hg19 mi
12:00 pm51 °FSunny.15 mph32%30.00 "Hg19 mi
11:00 am44 °FSunny.12 mph46%30.00 "Hg19 mi
10:00 am39 °FSunny.12 mph52%30.00 "Hg19 mi
9:00 am35 °FPassing clouds.7 mph65%30.00 "Hg19 mi
8:00 am36 °FClear.7 mph65%30.00 "Hg19 mi
7:00 am37 °FClear.8 mph61%29.99 "Hg19 mi
Weather by CustomWeather, © 2019

See weather overview